Weather History for Heber, UT

Change the Weather History Date:

Sunday, January 19, 2014

  Actual Average (KPVU) Record (KPVU)
Temperature  
Mean Temperature 21 °F -  
Max Temperature 37 °F 35 °F 51 °F (2000)
Min Temperature 5 °F 21 °F -19 °F (1984)
Degree Days  
Heating Degree Days 44    
Moisture  
Dew Point 10 °F    
Average Humidity 75    
Maximum Humidity 93    
Minimum Humidity 44    
Precipitation  
Precipitation 0.00 in - - ()
Sea Level Pressure  
Sea Level Pressure 30.29 in    
Wind  
Wind Speed 0 mph (ESE)    
Max Wind Speed 5 mph    
Max Gust Speed -    
Visibility 10 miles    
Events Thunderstorm    
Averages and records for this station are not official NWS values.
T = Trace of Precipitation, MM = Missing Value Source: NWS Daily Summary

Daily Weather History Graph

Daily Weather History Graph

Search for Another Location

Airport:

Trip Planner

Search our weather history database for the weather conditions in past years. The results will help you decide how hot, cold, wet, or windy it might be!

Date:

Astronomy

Jan. 19, 2014 Rise Set
Actual Time 7:45 AM MST 5:28 PM MST
Civil Twilight 7:15 AM MST 5:58 PM MST
Nautical Twilight 6:41 AM MST 6:31 PM MST
Astronomical Twilight 6:09 AM MST 7:04 PM MST
Moon 9:10 PM MST (1/19) 9:15 AM MST (1/19)
Length of Visible Light 10h 42m
Length of Day
9h 43m
Waning Gibbous, 89% of the Moon is Illuminated
Jan 19
Waning Gibbous
Jan 23
Last Quarter
Jan 30
New
Feb 6
First Quarter
Feb 14
Full

Hourly Weather History & Observations

Time (MST) Temp. Windchill Dew Point Humidity Pressure Visibility Wind Dir Wind Speed Gust Speed Precip Events Conditions
12:15 AM 12.2 °F - 8.6 °F 85% 30.34 in 10.0 mi Calm Calm - N/A   Clear
12:35 AM 10.4 °F - 6.8 °F 85% 30.34 in 10.0 mi Calm Calm - N/A   Clear
12:55 AM 8.6 °F - 5.0 °F 85% 30.34 in 10.0 mi Calm Calm - N/A   Clear
1:15 AM 8.6 °F - 5.0 °F 85% 30.33 in 10.0 mi Calm Calm - N/A   Clear
1:35 AM 8.6 °F - 5.0 °F 85% 30.33 in 10.0 mi Calm Calm - N/A   Clear
1:55 AM 10.4 °F - 8.6 °F 92% 30.33 in 10.0 mi Calm Calm - N/A   Clear
2:15 AM 8.6 °F - 5.0 °F 85% 30.33 in 10.0 mi Calm Calm - N/A   Clear
2:35 AM 10.4 °F - 6.8 °F 85% 30.34 in 10.0 mi Calm Calm - N/A   Clear
2:55 AM 10.4 °F - 5.0 °F 79% 30.35 in 10.0 mi Calm Calm - N/A   Clear
3:15 AM 8.6 °F - 5.0 °F 85% 30.35 in 10.0 mi Calm Calm - N/A   Clear
3:35 AM 8.6 °F - 5.0 °F 85% 30.35 in 10.0 mi Calm Calm - N/A   Clear
3:55 AM 6.8 °F - 3.2 °F 85% 30.35 in 10.0 mi Calm Calm - N/A   Clear
4:15 AM 8.6 °F - 6.8 °F 92% 30.35 in 10.0 mi Calm Calm - N/A   Clear
4:35 AM 6.8 °F - 5.0 °F 92% 30.34 in 10.0 mi Calm Calm - N/A   Clear
4:55 AM 5.0 °F - 3.2 °F 92% 30.34 in 10.0 mi Calm Calm - N/A   Clear
5:15 AM 6.8 °F - 5.0 °F 92% 30.34 in 10.0 mi Calm Calm - N/A   Clear
5:35 AM 8.6 °F - 5.0 °F 85% 30.34 in 10.0 mi Calm Calm - N/A   Clear
5:55 AM 8.6 °F - 5.0 °F 85% 30.33 in 10.0 mi Calm Calm - N/A   Clear
6:15 AM 5.0 °F - 3.2 °F 92% 30.34 in 10.0 mi Calm Calm - N/A   Clear
6:35 AM 6.8 °F - 3.2 °F 85% 30.34 in 10.0 mi Calm Calm - N/A   Clear
6:55 AM 5.0 °F - 1.4 °F 85% 30.34 in 10.0 mi Calm Calm - N/A   Clear
7:15 AM 5.0 °F - 3.2 °F 92% 30.34 in 10.0 mi Calm Calm - N/A   Clear
7:35 AM 5.0 °F - 1.4 °F 85% 30.34 in 10.0 mi Calm Calm - N/A   Clear
7:55 AM 5.0 °F - 1.4 °F 85% 30.35 in 7.0 mi Calm Calm - N/A   Clear
8:15 AM 5.0 °F - 3.2 °F 92% 30.35 in 10.0 mi Calm Calm - N/A   Clear
8:35 AM 8.6 °F - 5.0 °F 85% 30.36 in 10.0 mi Calm Calm - N/A   Clear
8:55 AM 12.2 °F - 8.6 °F 85% 30.36 in 10.0 mi Calm Calm - N/A   Clear
9:15 AM 14.0 °F - 10.4 °F 86% 30.36 in 10.0 mi Calm Calm - N/A   Clear
9:35 AM 14.0 °F - 12.2 °F 93% 30.36 in 10.0 mi Calm Calm - N/A Thunderstorm Clear
9:55 AM 19.4 °F - 12.2 °F 74% 30.36 in 10.0 mi Calm Calm - N/A   Clear
10:15 AM 19.4 °F - 12.2 °F 74% 30.36 in 10.0 mi Calm Calm - N/A   Clear
10:35 AM 21.2 °F - 14.0 °F 74% 30.36 in 10.0 mi Calm Calm - N/A   Clear
10:55 AM 23.0 °F - 14.0 °F 68% 30.36 in 10.0 mi Calm Calm - N/A Thunderstorm Clear
11:15 AM 24.8 °F - 14.0 °F 64% 30.35 in 10.0 mi Calm Calm - N/A   Clear
11:35 AM 24.8 °F - 14.0 °F 64% 30.34 in 10.0 mi Calm Calm - N/A Thunderstorm Thunderstorm
11:55 AM 26.6 °F - 15.8 °F 64% 30.32 in 10.0 mi Calm Calm - N/A   Clear
12:15 PM 30.2 °F - 17.6 °F 60% 30.31 in 10.0 mi Calm Calm - N/A   Clear
12:35 PM 30.2 °F - 17.6 °F 60% 30.29 in 10.0 mi Calm Calm - N/A   Clear
12:55 PM 32.0 °F - 17.6 °F 55% 30.28 in 10.0 mi Calm Calm - N/A   Clear
1:15 PM 32.0 °F - 17.6 °F 55% 30.26 in 10.0 mi Calm Calm - N/A   Clear
1:35 PM 33.8 °F - 17.6 °F 52% 30.26 in 10.0 mi Calm Calm - N/A   Clear
1:55 PM 35.6 °F - 17.6 °F 48% 30.24 in 10.0 mi Calm Calm - N/A   Clear
2:15 PM 33.8 °F - 19.4 °F 56% 30.23 in 10.0 mi Calm Calm - N/A   Clear
2:35 PM 37.4 °F - 17.6 °F 45% 30.23 in 10.0 mi Calm Calm - N/A   Clear
2:55 PM 37.4 °F - 17.6 °F 45% 30.23 in 10.0 mi Calm Calm - N/A   Clear
3:15 PM 35.6 °F - 19.4 °F 52% 30.23 in 10.0 mi Calm Calm - N/A   Clear
3:35 PM 35.6 °F - 17.6 °F 48% 30.23 in 10.0 mi Calm Calm - N/A   Clear
3:55 PM 35.6 °F - 15.8 °F 44% 30.23 in 10.0 mi Calm Calm - N/A   Clear
4:15 PM 35.6 °F - 15.8 °F 44% 30.22 in 10.0 mi Calm Calm - N/A   Clear
4:35 PM 32.0 °F - 17.6 °F 55% 30.22 in 10.0 mi Calm Calm - N/A   Clear
4:55 PM 32.0 °F 28.7 °F 17.6 °F 55% 30.22 in 10.0 mi SE 3.5 mph - N/A   Clear
5:15 PM 26.6 °F 22.6 °F 15.8 °F 64% 30.22 in 10.0 mi East 3.5 mph - N/A   Clear
5:55 PM 24.8 °F - 14.0 °F 64% 30.22 in 10.0 mi Calm Calm - N/A   Clear
6:15 PM 21.2 °F - 12.2 °F 68% 30.23 in 10.0 mi Calm Calm - N/A   Clear
6:35 PM 21.2 °F - 12.2 °F 68% 30.23 in 10.0 mi Calm Calm - N/A   Clear
6:55 PM 19.4 °F - 12.2 °F 74% 30.23 in 10.0 mi Calm Calm - N/A Thunderstorm Thunderstorm
7:15 PM 17.6 °F - 12.2 °F 79% 30.23 in 10.0 mi Calm Calm - N/A   Clear
7:35 PM 17.6 °F - 10.4 °F 73% 30.23 in 10.0 mi Calm Calm - N/A   Clear
7:55 PM 15.8 °F - 10.4 °F 79% 30.24 in 10.0 mi Calm Calm - N/A   Clear
8:15 PM 15.8 °F - 10.4 °F 79% 30.23 in 10.0 mi Calm Calm - N/A   Clear
8:35 PM 15.8 °F - 8.6 °F 73% 30.23 in 10.0 mi Calm Calm - N/A   Clear
8:55 PM 15.8 °F - 10.4 °F 79% 30.23 in 10.0 mi Calm Calm - N/A   Clear
9:15 PM 14.0 °F - 8.6 °F 79% 30.24 in 10.0 mi Calm Calm - N/A   Clear
9:35 PM 17.6 °F - 12.2 °F 79% 30.24 in 10.0 mi Calm Calm - N/A   Clear
9:55 PM 15.8 °F 10.2 °F 10.4 °F 79% 30.24 in 10.0 mi ESE 3.5 mph - N/A   Clear
10:15 PM 14.0 °F - 10.4 °F 86% 30.25 in 10.0 mi Calm Calm - N/A   Clear
10:35 PM 12.2 °F - 8.6 °F 85% 30.26 in 10.0 mi Calm Calm - N/A   Clear
10:55 PM 14.0 °F - 8.6 °F 79% 30.26 in 10.0 mi Calm Calm - N/A   Clear
11:15 PM 12.2 °F - 8.6 °F 85% 30.26 in 10.0 mi Calm Calm - N/A   Clear
11:35 PM 14.0 °F - 8.6 °F 79% 30.26 in 10.0 mi Calm Calm - N/A   Clear
11:55 PM 14.0 °F 6.5 °F 10.4 °F 86% 30.26 in 10.0 mi SSE 4.6 mph - N/A   Clear